Weather observations for the past three days for
Quantico Marine Corps Airfield - Turner Field
Imperial (Metric)
Date Time (edt) Wind (mph) Vis. (mi.) Weather Sky Cond. Temperature (ºF) Relative Humidity Wind Chill (°F) Heat Index (°F) Pressure Precipitation (in)
Air Dwpt 6 hour altimeter (in) sea level (mb) 1 hr 3 hr 6 hr
Max. Min.
03 13:56 Calm 7.00 Mostly Cloudy BKN080 87.1 75 87.1 75.9 67% 97 30.02 1016.5
03 12:56 S 3 7.00 Mostly Cloudy BKN080 84 75 74% 92 30.05 1017.5
03 11:56 S 8 7.00 Mostly Cloudy BKN120 84.9 75 72% 93 30.06 1017.8
03 10:56 Calm 7.00 Mostly Cloudy BKN012 84.9 73.9 70% 92 30.06 1018.0
03 09:56 Calm 7.00 Mostly Cloudy BKN009 80.1 73.9 82% 85 30.06 1017.9
03 08:56 NE 13 6.00 Fog/Mist OVC007 75.9 73 91% 76 30.07 1018.5
03 07:56 N 6 6.00 Fog/Mist OVC007 75.9 73 77 73.9 91% 76 30.07 1018.2
03 05:56 S 6 9.00 A Few Clouds FEW008 75.9 73.9 94% 75 30.02 1016.5
03 04:56 SE 5 9.00 Partly Cloudy SCT090 75.9 73 91% 76 30.02 1016.8
03 03:56 E 7 9.00 Fair CLR 75 73 94% 73 30.02 1016.7
03 02:56 SE 7 10.00 Fair CLR 77 73 88% 78 30.02 1016.6
03 01:56 S 9 10.00 Mostly Cloudy BKN020 BKN080 77 72 78.1 75 85% 78 30.04 1017.2
03 00:56 Calm 8.00 Fair CLR 75 72 90% 74 30.05 1017.6
02 23:56 E 3 8.00 Fair CLR 75.9 73 91% 76 30.05 1017.7
02 22:56 Vrbl 3 8.00 Fair CLR 75.9 72 88% 76 30.04 1017.4
02 21:56 Calm 8.00 Fair CLR 75.9 71.1 85% 76 30.04 1017.4
02 18:56 SE 7 9.00 Fair CLR 79 72 79% 82 30.06 1018.0
02 15:56 N 7 7.00 Thunderstorm Light Rain BKN110 82 70 67% 86 30.08 1018.6
02 14:56 NE 14 G 38 7.00 Thunderstorm Light Rain SCT040 SCT048 BKN060 84 69.1 61% 88 30.06 1017.8
02 13:56 SE 5 7.00 Fair CLR 91.9 77 91.9 80.1 62% 106 30.07 1018.3
02 12:56 SE 5 8.00 Partly Cloudy FEW060 SCT120 91 77 64% 105 30.07 1018.4
02 11:56 S 5 7.00 Fair CLR 88 77 70% 100 30.07 1018.4
02 10:56 NE 3 7.00 Partly Cloudy SCT120 87.1 75.9 70% 98 30.08 1018.5
02 09:56 NE 7 7.00 A Few Clouds FEW120 84 75 74% 92 30.07 1018.2
02 08:56 NE 5 7.00 A Few Clouds FEW100 82 73 74% 87 30.06 1018.1
02 07:56 NE 5 7.00 A Few Clouds FEW100 80.1 73 80.1 77 79% 84 30.06 1018.1
02 06:56 N 5 7.00 Fair CLR 78.1 72 82% 80 30.06 1017.8
02 05:56 N 6 9.00 Fair CLR 79 72 79% 82 30.05 1017.5
02 04:56 N 7 9.00 Fair CLR 78.1 72 82% 80 30.03 1017.1
02 03:56 W 6 8.00 Fair CLR 77 71.1 82% 79 30.04 1017.2
02 02:56 NW 5 8.00 Fair CLR 79 73 82% 82 30.03 1016.8
02 01:56 W 5 7.00 Fair CLR 79 75 90 79 88% 83 30.02 1016.6
02 00:56 Calm 8.00 Fair CLR 81 75 82% 87 30.02 1016.5
01 23:56 W 7 8.00 Fair CLR 81 75.9 85% 87 30 1016.1
01 21:56 W 6 8.00 Fair CLR 82.9 75.9 79% 91 29.98 1015.4
01 20:56 W 6 8.00 Fair CLR 86 75 70% 95 29.96 1014.7
01 19:56 SW 6 7.00 Fair CLR 90 72 99 90 56% 97 29.94 1014.0
01 18:56 Calm 7.00 Fair CLR 93 72 50% 101 29.95 1014.2
01 17:56 Calm 7.00 Partly Cloudy SCT100 95 71.1 46% 102 29.96 1014.6
01 16:56 Calm 7.00 A Few Clouds FEW080 98.1 70 40% 105 29.96 1014.7
01 15:56 Calm 7.00 Partly Cloudy SCT060 97 70 42% 104 29.97 1015.1
01 13:56 SE 7 7.00 Partly Cloudy FEW035 SCT080 93.9 75.9 93.9 78.1 56% 107 29.99 1015.8
01 11:56 SE 8 7.00 A Few Clouds FEW150 89.1 75.9 65% 100 30.03 1016.9
01 08:56 Calm 7.00 A Few Clouds FEW080 80.1 73 79% 84 30.06 1017.9
01 07:56 S 3 7.00 A Few Clouds FEW080 79 72 79 75 79% 82 30.05 1017.6
01 06:56 S 5 5.00 Fog/Mist CLR 75.9 72 88% 76 30.04 1017.3
01 05:56 S 3 7.00 Fair CLR 75.9 73 91% 76 30.03 1017.1
01 04:56 W 3 6.00 Fog/Mist CLR 75 73.9 96% 73 30.04 1017.3
01 03:56 W 3 6.00 Fog/Mist CLR 75.9 73 91% 76 30.04 1017.3
01 02:56 Calm 7.00 Fair CLR 78.1 73 85% 81 30.05 1017.6
01 01:56 Calm 7.00 Fair CLR 78.1 73.9 82.9 75.9 87% 81 30.06 1018.0
01 00:56 W 7 5.00 Fog/Mist CLR 77 75 94% 78 30.07 1018.5
31 23:56 Calm 5.00 Fog/Mist OVC095 77 75 94% 78 30.08 1018.7
31 22:56 W 5 6.00 Fog/Mist CLR 78.1 75 90% 81 30.08 1018.6
31 20:56 Calm 7.00 Fair CLR 81 75.9 85% 87 30.07 1018.3
31 18:56 SE 3 7.00 Overcast OVC080 84 77 80% 94 30.07 1018.3
31 17:56 NE 3 7.00 Overcast OVC080 86 73 65% 93 30.08 1018.6
31 16:56 Calm 7.00 Partly Cloudy FEW030 SCT090 88 72 59% 95 30.07 1018.3
31 14:56 Calm 7.00 A Few Clouds FEW035 FEW080 88 70 55% 93 30.09 1018.9
Date Time (edt) Wind (mph) Vis. (mi.) Weather Sky Cond. Air Dwpt Max. Min. Relative Humidity Wind Chill (°F) Heat Index (°F) altimeter (in) sea level (mb) 1 hr 3 hr 6 hr
6 hour
Temperature (ºF) Pressure Precipitation (in)